Location: Vidojevica
(43.1414°N, 21.5558°E)
Time: 12:15:32
(UTC+01:00)

ISS - Visible Passes

Search period start: 23 January 2019 00:00
Search period end: 02 February 2019 00:00
Orbit: 404 x 411 km, 51.6° (Epoch: 23 January)

Date Brightness Start Highest point End Pass type
(mag) Time Alt. Az. Time Alt. Az. Time Alt. Az.
23 Jan -1.7 17:03:51 10° SSE 17:05:44 14° SE 17:07:37 10° E visible
23 Jan -2.8 18:38:36 10° WSW 18:41:04 46° WSW 18:41:04 46° WSW visible
24 Jan -3.7 17:47:18 10° SW 17:50:34 62° SE 17:52:03 29° ENE visible
24 Jan -0.4 19:24:25 10° W 19:24:46 12° WNW 19:24:46 12° WNW visible
25 Jan -2.7 18:32:41 10° W 18:35:40 37° NNW 18:35:40 37° NNW visible
26 Jan -3.4 17:41:05 10° WSW 17:44:20 58° NNW 17:46:30 19° NE visible
26 Jan -0.6 19:18:48 10° WNW 19:19:13 12° NW 19:19:13 12° NW visible
27 Jan -2.1 18:27:00 10° WNW 18:29:46 24° NNW 18:30:00 24° N visible
28 Jan -2.5 17:35:13 10° W 17:38:13 32° NNW 17:40:44 13° NE visible
28 Jan -0.7 19:13:04 10° NW 19:13:26 12° NW 19:13:26 12° NW visible
29 Jan -1.9 18:21:19 10° NW 18:23:48 19° N 18:24:08 19° N visible
30 Jan -2.0 17:29:29 10° WNW 17:32:09 22° NNW 17:34:49 10° NE visible
30 Jan -0.8 19:07:00 10° NW 19:07:31 13° NW 19:07:31 13° NW visible
31 Jan -1.9 18:15:26 10° NW 18:17:50 18° N 18:18:11 18° N visible
01 Feb -1.8 17:23:42 10° NW 17:26:07 19° N 17:28:33 10° NE visible
01 Feb -1.2 19:00:40 10° NW 19:01:34 15° NNW 19:01:34 15° NNW visible
